Location: Unspecified
(49.9820°N, 20.4363°E)
Time: 05:38:47
(UTC+02:00)

Vanguard 1 - Visible Passes

Search period start: 14 May 2026 00:00
Search period end: 24 May 2026 00:00
Orbit: 654 x 3817 km, 34.2° (Epoch: 13 May)

Date Brightness Start Highest point End Pass type
(mag) Time Alt. Az. Time Alt. Az. Time Alt. Az.
14 May 13.0 21:44:04 10° WSW 21:56:49 34° SSW 22:11:29 16° SSE visible
15 May 13.6 00:08:45 10° WSW 00:19:11 17° SW 00:23:59 16° SSW visible
15 May 13.2 22:03:38 10° WSW 22:15:57 30° SSW 22:28:58 16° SSE visible
16 May 13.8 00:31:41 10° WSW 00:38:01 12° SW 00:41:28 12° SW visible
16 May 13.3 22:23:28 10° WSW 22:35:04 25° SSW 22:46:30 15° S visible
17 May 13.5 22:43:46 10° WSW 22:54:07 20° SSW 23:04:06 14° S visible
18 May 13.0 20:40:50 10° WSW 20:51:08 31° SSW 21:06:42 10° SSE visible
18 May 13.6 23:04:57 10° WSW 23:13:09 15° SW 23:21:47 11° SSW visible
19 May 13.1 21:00:24 10° WSW 21:10:18 26° SSW 21:24:38 10° SSE visible
19 May 13.8 23:29:35 10° SW 23:32:09 10° SW 23:34:51 10° SSW visible
20 May 13.3 21:20:18 10° WSW 21:29:27 22° SSW 21:42:02 10° SSE visible
21 May 13.4 21:40:46 10° WSW 21:48:35 17° SSW 21:58:37 10° S visible
22 May 13.6 22:02:39 10° SW 22:07:42 12° SW 22:13:32 10° SSW visible
